COSMOS 1275 DEB

Satellite information

Favourite Embed

Satellite Type and Status

DEBRISIN ORBIT

Key statistics

Satellite COSMOS 1275 DEB at a glance.

Uptime

16166

Days in orbit

Revolutions

≈ 13.9

Per day

Orbit

LEO

Low Earth Orbit

Inclination

83.0

Latest

Satellite identification and parameters

Extended collection of information and parameters for COSMOS 1275 DEB.

Object identification

Identified? True

Debris? True

Object name: COSMOS 1275 DEB

International designator: 1981-053HL

Object number (NORAD): 13816

Object ID (CCSDS): 13816

Country: COMMONWEALTH OF INDEPENDENT STATES (CIS)

Current information (Y/N): Y

RCS size: SMALL

Orbital parameters

Period: 103.788 minutes

Inclination: 82.9844 deg

SMA: 7315.731 km

Apoapsis: 1052.074 km

Periapsis: 823.117 km

RAAN: 286.3034 deg

Eccentricy: 0.01564828

Argument of periapsis: 277.5003 deg

Mean anomaly: 210.7129 deg

Mean motion: 13.87446357 rev/day

Mean motion (dot): 0.00001292 rev/day2

B* drag term: 0.00098463344 1/REarth

Two-line elements (TLE)

Creation date: Sept. 5, 2025, 7:38 p.m.

Reference frame: TEME

Reference center: EARTH

Epoch: Sept. 5, 2025, 12:54 p.m. UTC

TLE line 0: 0 COSMOS 1275 DEB

TLE line 1: 1 13816U 81053HL 25248.53762394 .00001292 00000-0 98463-3 0 9993

TLE line 2: 2 13816 82.9844 286.3034 0156483 277.5003 210.7129 13.87446357120792

Live tracking on map

Real-time ground track for satellite COSMOS 1275 DEB.

In-orbit conjunctions

A list of the most updated potential collisions computed for object COSMOS 1275 DEB.

Target Orbit TCA Probability of collision Miss distance Type
COSMOS 1275 DEB LEO 2024-11-14 13:11:14 0.0002228002 696.0 (m) DEBRIS
FENGYUN 1C DEB SSO 2024-11-11 09:42:44 0.000529772 395.0 (m) DEBRIS
SL-8 R/B LEO 2024-09-27 03:59:14 0.0006204584 175.0 (m) ROCKET BODY

Associated space launch

Navigation satellite providing location information for the Tsiklon-B navigation system

COSMOS 1275 DEB was lifted into orbit during the mission ‘Kosmos-3M | Parus 27’, on board a Kosmos-3M space rocket.

The launch took place on June 4, 1981, 3:41 p.m. from 132/2.

For more information about the launch, click the button.

Launch to space Kosmos-3M | Parus 27
Kosmos-3M | Parus 27

Agency: N/A

Status: Launch Successful

Launch date: June 4, 1981, 3:41 p.m. UTC

Rocket: Kosmos-3M

Launch pad: 132/2

Location: Plesetsk Cosmodrome, Russian Federation

...

Latest news about this satellite

There are no fresh news available about this satellite. Check back as we update our databases every day.


Newsletter sign-up

Weekly statistics, charts and insights to help you stay on top of the space industry.